Location: Newark
(30.3936°N, 76.2251°E)
Time: 00:44:02
(UTC+00:00)

Hubble Space Telescope - Visible Passes

Search period start: 22 September 2020 00:00
Search period end: 02 October 2020 00:00
Orbit: 536 x 540 km, 28.5° (Epoch: 21 September)

Date Brightness Start Highest point End Pass type
(mag) Time Alt. Az. Time Alt. Az. Time Alt. Az.
23 Sep 2.4 00:15:06 10° SW 00:18:37 27° SSE 00:22:08 10° ESE visible
24 Sep 2.1 00:04:08 10° SW 00:07:51 33° SSE 00:11:33 10° E visible
24 Sep 1.8 23:53:45 13° SW 23:57:04 39° SSE 00:00:55 10° E visible
25 Sep 1.5 23:43:47 20° SW 23:46:19 45° SSE 23:50:15 10° E visible
26 Sep 1.2 23:33:47 29° SW 23:35:34 51° S 23:39:35 10° E visible
27 Sep 1.0 23:23:44 41° SW 23:24:50 57° S 23:28:53 10° E visible
28 Sep 0.8 23:13:41 58° SSW 23:14:06 62° S 23:18:10 10° E visible
29 Sep 0.9 23:03:38 64° SSE 23:03:38 64° SSE 23:07:27 10° E visible
30 Sep 1.5 22:53:34 49° ESE 22:53:34 49° ESE 22:56:45 10° E visible
01 Oct 2.2 22:43:32 34° ESE 22:43:32 34° ESE 22:46:01 10° E visible
